Location: ?kun?ru
(16.3916°N, 80.8194°E)
Time: 01:27:40
(UTC+00:00)

IRS-1D - Pass Details

Date: 19 May 2025
Orbit: 737 x 811 km, 98.8° (Epoch: 24 June)

Event Time Altitude Azimuth Distance (km) Brightness Sun altitude
Rises 22:35:45 0° 17° (NNE) 3,322 7.5 -20.2°
Reaches altitude 10° 22:38:07 10° 21° (NNE) 2,387 6.7 -19.7°
Maximum altitude 22:43:21 63° 102° (ESE) 892 4.0 -18.6°
Drops below altitude 10° 22:48:30 10° 183° (S) 2,352 5.7 -17.6°
Enters shadow 22:49:05 - 184° (S) 2,579 5.9 -17.4°
